"Sample Date","Sample Time","Sample Value","Units","Flow Rate","Sample Interval","Number Channels","Micron Size 0","Counts/Channel 0","Micron Size 1","Counts/Channel 1","Micron Size 2","Counts/Channel 2","Micron Size 3","Counts/Channel 3","Micron Size 4","Counts/Channel 4","Micron Size 5","Counts/Channel 5","Micron Size 6","Counts/Channel 6","Micron Size 7","Counts/Channel 7","Micron Size 8","Counts/Channel 8","Micron Size 9","Counts/Channel 9","Micron Size 10","Counts/Channel 10","Micron Size 11","Counts/Channel 11","Micron Size 12","Counts/Channel 12","Micron Size 13","Counts/Channel 13","Micron Size 14","Counts/Channel 14","Micron Size 15","Counts/Channel 15","Micron Size 16","Counts/Channel 16","Micron Size 17","Counts/Channel 17","Micron Size 18","Counts/Channel 18","Micron Size 19","Counts/Channel 19","Micron Size 20","Counts/Channel 20","Micron Size 21","Counts/Channel 21","Micron Size 22","Counts/Channel 22","Micron Size 23","Counts/Channel 23","Micron Size 24","Counts/Channel 24","Micron Size 25","Counts/Channel 25","Micron Size 26","Counts/Channel 26","Micron Size 27","Counts/Channel 27","Micron Size 28","Counts/Channel 28","Micron Size 29","Counts/Channel 29","Micron Size 30","Counts/Channel 30","Micron Size 31","Counts/Channel 31"
"04/02/08","19:00:01",27212.000,"cc",28313.018,6.00,6,0.100,24711.000,0.200,1009.000,0.300,581.000,0.500,665.000,1.000,246.000,5.000,0
"04/02/08","19:00:07",27256.000,"cc",28374.637,6.00,6,0.100,24647.000,0.200,1056.000,0.300,630.000,0.500,695.000,1.000,228.000,5.000,0
"04/02/08","19:00:13",27206.000,"cc",28343.338,6.00,6,0.100,24615.000,0.200,1011.000,0.300,666.000,0.500,700.000,1.000,214.000,5.000,0
"04/02/08","19:00:19",27169.000,"cc",28358.330,6.00,6,0.100,24663.000,0.200,952.000,0.300,606.000,0.500,696.000,1.000,252.000,5.000,0
"04/02/08","19:00:25",27445.000,"cc",28258.229,6.00,6,0.100,24776.000,0.200,1068.000,0.300,635.000,0.500,716.000,1.000,250.000,5.000,0
"04/02/08","19:00:31",27576.000,"cc",28242.147,6.00,6,0.100,24838.000,0.200,1062.000,0.300,647.000,0.500,766.000,1.000,263.000,5.000,0
"04/02/08","19:00:37",27706.000,"cc",28402.344,6.00,6,0.100,24904.000,0.200,1147.000,0.300,674.000,0.500,741.000,1.000,240.000,5.000,0
"04/02/08","19:00:43",27340.000,"cc",28497.408,6.00,6,0.100,24866.000,0.200,968.000,0.300,572.000,0.500,715.000,1.000,219.000,5.000,0
"04/02/08","19:00:49",26619.000,"cc",28347.039,6.00,6,0.100,24361.000,0.200,967.000,0.300,511.000,0.500,563.000,1.000,217.000,5.000,0
"04/02/08","19:00:55",26900.000,"cc",28271.190,6.00,6,0.100,24521.000,0.200,959.000,0.300,564.000,0.500,648.000,1.000,208.000,5.000,0
"04/02/08","19:01:01",27105.000,"cc",28213.389,6.00,6,0.100,24639.000,0.200,945.000,0.300,601.000,0.500,688.000,1.000,232.000,5.000,0
"04/02/08","19:01:07",27171.000,"cc",28270.195,6.00,6,0.100,24725.000,0.200,980.000,0.300,580.000,0.500,661.000,1.000,225.000,5.000,0
"04/02/08","19:01:13",27243.000,"cc",28189.820,6.00,6,0.100,24503.000,0.200,1058.000,0.300,697.000,0.500,732.000,1.000,253.000,5.000,0
"04/02/08","19:01:19",27293.000,"cc",28343.658,6.00,6,0.100,24728.000,0.200,1025.000,0.300,645.000,0.500,662.000,1.000,233.000,5.000,0
"04/02/08","19:01:25",27220.000,"cc",28329.881,6.00,6,0.100,24569.000,0.200,1080.000,0.300,620.000,0.500,695.000,1.000,256.000,5.000,0
"04/02/08","19:01:31",27475.000,"cc",28280.014,6.00,6,0.100,24702.000,0.200,1097.000,0.300,647.000,0.500,770.000,1.000,259.000,5.000,0
"04/02/08","19:01:37",27105.000,"cc",28434.928,6.00,6,0.100,24690.000,0.200,988.000,0.300,604.000,0.500,632.000,1.000,191.000,5.000,0
"04/02/08","19:01:43",27072.000,"cc",28316.186,6.00,6,0.100,24495.000,0.200,1019.000,0.300,637.000,0.500,679.000,1.000,242.000,5.000,0
"04/02/08","19:01:49",27479.000,"cc",28274.625,6.00,6,0.100,24840.000,0.200,1056.000,0.300,624.000,0.500,692.000,1.000,267.000,5.000,0
"04/02/08","19:01:55",26755.000,"cc",28337.359,6.00,6,0.100,24279.000,0.200,1014.000,0.300,604.000,0.500,649.000,1.000,209.000,5.000,0
"04/02/08","19:02:01",27310.000,"cc",28435.475,6.00,6,0.100,24850.000,0.200,934.000,0.300,588.000,0.500,694.000,1.000,244.000,5.000,0
"04/02/08","19:02:07",27165.000,"cc",28356.039,6.00,6,0.100,24629.000,0.200,1013.000,0.300,612.000,0.500,673.000,1.000,238.000,5.000,0
"04/02/08","19:02:13",27194.000,"cc",28158.441,6.00,6,0.100,24601.000,0.200,1030.000,0.300,621.000,0.500,693.000,1.000,249.000,5.000,0
"04/02/08","19:02:19",27378.000,"cc",28186.748,6.00,6,0.100,24663.000,0.200,1061.000,0.300,647.000,0.500,764.000,1.000,243.000,5.000,0
"04/02/08","19:02:25",27895.000,"cc",28301.162,6.00,6,0.100,24964.000,0.200,1121.000,0.300,737.000,0.500,784.000,1.000,289.000,5.000,0
"04/02/08","19:02:31",28081.000,"cc",28405.346,6.00,6,0.100,25120.000,0.200,1160.000,0.300,737.000,0.500,777.000,1.000,287.000,5.000,0
"04/02/08","19:02:37",27880.000,"cc",28283.291,6.00,6,0.100,25021.000,0.200,1059.000,0.300,723.000,0.500,793.000,1.000,284.000,5.000,0
"04/02/08","19:02:43",27215.000,"cc",28272.777,6.00,6,0.100,24424.000,0.200,1100.000,0.300,691.000,0.500,718.000,1.000,282.000,5.000,0
"04/02/08","19:02:49",27539.000,"cc",28463.434,6.00,6,0.100,24788.000,0.200,1092.000,0.300,662.000,0.500,764.000,1.000,233.000,5.000,0
"04/02/08","19:02:55",27550.000,"cc",28426.543,6.00,6,0.100,24965.000,0.200,1044.000,0.300,607.000,0.500,694.000,1.000,240.000,5.000,0
"04/02/08","19:03:01",27376.000,"cc",28237.934,6.00,6,0.100,24691.000,0.200,1056.000,0.300,626.000,0.500,760.000,1.000,243.000,5.000,0
"04/02/08","19:03:07",27970.000,"cc",28328.316,6.00,6,0.100,25067.000,0.200,1123.000,0.300,713.000,0.500,769.000,1.000,298.000,5.000,0
"04/02/08","19:03:13",28149.000,"cc",28292.279,6.00,6,0.100,25327.000,0.200,1082.000,0.300,700.000,0.500,771.000,1.000,269.000,5.000,0
"04/02/08","19:03:19",28054.000,"cc",28249.342,6.00,6,0.100,25176.000,0.200,1146.000,0.300,694.000,0.500,756.000,1.000,282.000,5.000,0
"04/02/08","19:03:25",28241.000,"cc",28379.352,6.00,6,0.100,25450.000,0.200,1009.000,0.300,674.000,0.500,800.000,1.000,308.000,5.000,0
"04/02/08","19:03:31",27911.000,"cc",28358.395,6.00,6,0.100,25154.000,0.200,1088.000,0.300,684.000,0.500,727.000,1.000,258.000,5.000,0
"04/02/08","19:03:37",28153.000,"cc",28230.029,6.00,6,0.100,25169.000,0.200,1130.000,0.300,723.000,0.500,839.000,1.000,292.000,5.000,0
"04/02/08","19:03:43",28290.000,"cc",28225.076,6.00,6,0.100,25366.000,0.200,1087.000,0.300,720.000,0.500,819.000,1.000,298.000,5.000,0
"04/02/08","19:03:49",28243.000,"cc",28417.803,6.00,6,0.100,25452.000,0.200,1122.000,0.300,670.000,0.500,757.000,1.000,242.000,5.000,0
"04/02/08","19:03:55",27725.000,"cc",28363.086,6.00,6,0.100,25009.000,0.200,1049.000,0.300,664.000,0.500,741.000,1.000,262.000,5.000,0
"04/02/08","19:04:01",27834.000,"cc",28311.606,6.00,6,0.100,25013.000,0.200,1094.000,0.300,701.000,0.500,747.000,1.000,279.000,5.000,0
"04/02/08","19:04:07",28037.000,"cc",28271.871,6.00,6,0.100,25234.000,0.200,1099.000,0.300,681.000,0.500,749.000,1.000,274.000,5.000,0
"04/02/08","19:04:13",27696.000,"cc",28315.406,6.00,6,0.100,25014.000,0.200,1023.000,0.300,686.000,0.500,721.000,1.000,252.000,5.000,0
"04/02/08","19:04:19",27949.000,"cc",28357.773,6.00,6,0.100,25155.000,0.200,1101.000,0.300,658.000,0.500,782.000,1.000,253.000,5.000,0
"04/02/08","19:04:25",28156.000,"cc",28305.350,6.00,6,0.100,25275.000,0.200,1126.000,0.300,715.000,0.500,765.000,1.000,275.000,5.000,0
"04/02/08","19:04:31",27536.000,"cc",28317.986,6.00,6,0.100,25005.000,0.200,996.000,0.300,583.000,0.500,707.000,1.000,245.000,5.000,0
"04/02/08","19:04:37",27507.000,"cc",28277.088,6.00,6,0.100,24793.000,0.200,1090.000,0.300,651.000,0.500,715.000,1.000,258.000,5.000,0
"04/02/08","19:04:43",27713.000,"cc",28330.078,6.00,6,0.100,24989.000,0.200,1064.000,0.300,693.000,0.500,709.000,1.000,258.000,5.000,0
"04/02/08","19:04:49",27668.000,"cc",28240.869,6.00,6,0.100,25006.000,0.200,1077.000,0.300,652.000,0.500,698.000,1.000,235.000,5.000,0
"04/02/08","19:04:55",27749.000,"cc",28278.617,6.00,6,0.100,24944.000,0.200,1093.000,0.300,652.000,0.500,794.000,1.000,266.000,5.000,0
"04/02/08","19:05:01",27522.000,"cc",28212.723,6.00,6,0.100,24891.000,0.200,1036.000,0.300,624.000,0.500,721.000,1.000,250.000,5.000,0
"04/02/08","19:05:07",27237.000,"cc",28313.873,6.00,6,0.100,24726.000,0.200,1019.000,0.300,632.000,0.500,633.000,1.000,227.000,5.000,0
"04/02/08","19:05:13",27020.000,"cc",28313.199,6.00,6,0.100,24495.000,0.200,993.000,0.300,613.000,0.500,663.000,1.000,256.000,5.000,0
"04/02/08","19:05:19",26845.000,"cc",28193.877,6.00,6,0.100,24388.000,0.200,975.000,0.300,588.000,0.500,674.000,1.000,220.000,5.000,0
"04/02/08","19:05:25",26660.000,"cc",28160.836,6.00,6,0.100,24259.000,0.200,962.000,0.300,575.000,0.500,629.000,1.000,235.000,5.000,0
"04/02/08","19:05:31",26945.000,"cc",28178.539,6.00,6,0.100,24452.000,0.200,951.000,0.300,642.000,0.500,679.000,1.000,221.000,5.000,0
"04/02/08","19:05:37",26844.000,"cc",28328.008,6.00,6,0.100,24180.000,0.200,1037.000,0.300,641.000,0.500,700.000,1.000,286.000,5.000,0
"04/02/08","19:05:43",27152.000,"cc",28236.240,6.00,6,0.100,24631.000,0.200,968.000,0.300,634.000,0.500,682.000,1.000,237.000,5.000,0
"04/02/08","19:05:49",26624.000,"cc",28387.650,6.00,6,0.100,24029.000,0.200,993.000,0.300,594.000,0.500,732.000,1.000,276.000,5.000,0
"04/02/08","19:05:55",26938.000,"cc",28265.697,6.00,6,0.100,24260.000,0.200,1025.000,0.300,603.000,0.500,768.000,1.000,282.000,5.000,0
"04/02/08","19:06:01",26625.000,"cc",28239.307,6.00,6,0.100,24054.000,0.200,967.000,0.300,622.000,0.500,731.000,1.000,251.000,5.000,0
"04/02/08","19:06:07",26852.000,"cc",28347.723,6.00,6,0.100,24105.000,0.200,1067.000,0.300,640.000,0.500,771.000,1.000,269.000,5.000,0
"04/02/08","19:06:13",26795.000,"cc",28384.293,6.00,6,0.100,24071.000,0.200,1063.000,0.300,641.000,0.500,762.000,1.000,258.000,5.000,0
"04/02/08","19:06:19",26784.000,"cc",28338.453,6.00,6,0.100,24156.000,0.200,1036.000,0.300,630.000,0.500,696.000,1.000,266.000,5.000,0
"04/02/08","19:06:25",26781.000,"cc",28329.988,6.00,6,0.100,24216.000,0.200,979.000,0.300,622.000,0.500,675.000,1.000,289.000,5.000,0
"04/02/08","19:06:31",27002.000,"cc",28290.711,6.00,6,0.100,24219.000,0.200,1062.000,0.300,669.000,0.500,773.000,1.000,279.000,5.000,0
"04/02/08","19:06:37",26960.000,"cc",28297.889,6.00,6,0.100,24311.000,0.200,1034.000,0.300,646.000,0.500,731.000,1.000,238.000,5.000,0
"04/02/08","19:06:43",26873.000,"cc",28291.949,6.00,6,0.100,24293.000,0.200,980.000,0.300,607.000,0.500,726.000,1.000,267.000,5.000,0
"04/02/08","19:06:49",25988.000,"cc",28290.654,6.00,6,0.100,23427.000,0.200,965.000,0.300,608.000,0.500,713.000,1.000,275.000,5.000,0
"04/02/08","19:06:55",26498.000,"cc",28351.381,6.00,6,0.100,23904.000,0.200,986.000,0.300,676.000,0.500,670.000,1.000,262.000,5.000,0
"04/02/08","19:07:01",25700.000,"cc",28367.553,6.00,6,0.100,23345.000,0.200,906.000,0.300,551.000,0.500,641.000,1.000,257.000,5.000,0
"04/02/08","19:07:07",25911.000,"cc",28270.580,6.00,6,0.100,23420.000,0.200,939.000,0.300,631.000,0.500,679.000,1.000,242.000,5.000,0
"04/02/08","19:07:13",25598.000,"cc",28336.627,6.00,6,0.100,23342.000,0.200,906.000,0.300,504.000,0.500,609.000,1.000,237.000,5.000,0
"04/02/08","19:07:19",25864.000,"cc",28331.367,6.00,6,0.100,23420.000,0.200,979.000,0.300,528.000,0.500,686.000,1.000,251.000,5.000,0
"04/02/08","19:07:25",26101.000,"cc",28308.393,6.00,6,0.100,23695.000,0.200,966.000,0.300,542.000,0.500,654.000,1.000,244.000,5.000,0
"04/02/08","19:07:31",25687.000,"cc",28317.084,6.00,6,0.100,23287.000,0.200,951.000,0.300,543.000,0.500,660.000,1.000,246.000,5.000,0
"04/02/08","19:07:37",25933.000,"cc",28340.356,6.00,6,0.100,23538.000,0.200,954.000,0.300,574.000,0.500,629.000,1.000,238.000,5.000,0
"04/02/08","19:07:43",25890.000,"cc",28326.426,6.00,6,0.100,23706.000,0.200,894.000,0.300,510.000,0.500,553.000,1.000,227.000,5.000,0
"04/02/08","19:07:49",25992.000,"cc",28311.471,6.00,6,0.100,23532.000,0.200,920.000,0.300,572.000,0.500,721.000,1.000,247.000,5.000,0
"04/02/08","19:07:55",25864.000,"cc",28246.856,6.00,6,0.100,23413.000,0.200,996.000,0.300,591.000,0.500,639.000,1.000,225.000,5.000,0
"04/02/08","19:08:01",25855.000,"cc",28251.494,6.00,6,0.100,23390.000,0.200,968.000,0.300,579.000,0.500,666.000,1.000,252.000,5.000,0
"04/02/08","19:08:07",25941.000,"cc",28229.834,6.00,6,0.100,23623.000,0.200,932.000,0.300,536.000,0.500,597.000,1.000,253.000,5.000,0
"04/02/08","19:08:13",26413.000,"cc",28168.766,6.00,6,0.100,24051.000,0.200,942.000,0.300,564.000,0.500,638.000,1.000,218.000,5.000,0
"04/02/08","19:08:19",26824.000,"cc",28333.885,6.00,6,0.100,24430.000,0.200,920.000,0.300,642.000,0.500,637.000,1.000,195.000,5.000,0
"04/02/08","19:08:25",25954.000,"cc",28298.867,6.00,6,0.100,23632.000,0.200,916.000,0.300,546.000,0.500,616.000,1.000,244.000,5.000,0
"04/02/08","19:08:31",26045.000,"cc",28293.178,6.00,6,0.100,23656.000,0.200,983.000,0.300,566.000,0.500,618.000,1.000,222.000,5.000,0
"04/02/08","19:08:37",26237.000,"cc",28232.211,6.00,6,0.100,23851.000,0.200,955.000,0.300,564.000,0.500,643.000,1.000,224.000,5.000,0
"04/02/08","19:08:43",26119.000,"cc",28256.895,6.00,6,0.100,23827.000,0.200,938.000,0.300,529.000,0.500,613.000,1.000,212.000,5.000,0
"04/02/08","19:08:49",26249.000,"cc",28337.748,6.00,6,0.100,23942.000,0.200,932.000,0.300,535.000,0.500,615.000,1.000,225.000,5.000,0
"04/02/08","19:08:55",26074.000,"cc",28283.356,6.00,6,0.100,23728.000,0.200,947.000,0.300,546.000,0.500,641.000,1.000,212.000,5.000,0
"04/02/08","19:09:01",25855.000,"cc",28328.256,6.00,6,0.100,23570.000,0.200,963.000,0.300,530.000,0.500,600.000,1.000,192.000,5.000,0
"04/02/08","19:09:07",26155.000,"cc",28374.106,6.00,6,0.100,23668.000,0.200,985.000,0.300,613.000,0.500,648.000,1.000,241.000,5.000,0
"04/02/08","19:09:13",26435.000,"cc",28259.752,6.00,6,0.100,23785.000,0.200,1043.000,0.300,664.000,0.500,699.000,1.000,244.000,5.000,0
"04/02/08","19:09:19",26645.000,"cc",28366.494,6.00,6,0.100,23807.000,0.200,1151.000,0.300,660.000,0.500,763.000,1.000,264.000,5.000,0
"04/02/08","19:09:25",26936.000,"cc",28330.512,6.00,6,0.100,23818.000,0.200,1239.000,0.300,775.000,0.500,821.000,1.000,283.000,5.000,0
"04/02/08","19:09:31",27318.000,"cc",28350.068,6.00,6,0.100,24011.000,0.200,1260.000,0.300,879.000,0.500,869.000,1.000,299.000,5.000,0
"04/02/08","19:09:37",28914.000,"cc",28382.602,6.00,6,0.100,25238.000,0.200,1563.000,0.300,940.000,0.500,844.000,1.000,329.000,5.000,0
"04/02/08","19:09:43",29056.000,"cc",28263.592,6.00,6,0.100,25660.000,0.200,1408.000,0.300,834.000,0.500,866.000,1.000,288.000,5.000,0
"04/02/08","19:09:49",31938.000,"cc",28323.766,6.00,6,0.100,27802.000,0.200,1881.000,0.300,981.000,0.500,943.000,1.000,331.000,5.000,0
"04/02/08","19:09:55",53129.000,"cc",28352.906,6.00,6,0.100,45825.000,0.200,4086.000,0.300,1462.000,0.500,1329.000,1.000,427.000,5.000,0
"04/02/08","19:10:01",69545.000,"cc",28302.729,6.00,6,0.100,61105.000,0.200,5350.000,0.300,1469.000,0.500,1209.000,1.000,412.000,5.000,0
"04/02/08","19:10:07",117731.000,"cc",28304.959,6.00,6,0.100,104424.000,0.200,9726.000,0.300,1784.000,0.500,1327.000,1.000,470.000,5.000,0
"04/02/08","19:10:13",293287.000,"cc",28344.703,6.00,6,0.100,257261.000,0.200,31257.000,0.300,2811.000,0.500,1477.000,1.000,481.000,5.000,0
"04/02/08","19:10:19",284403.000,"cc",28293.920,6.00,6,0.100,250991.000,0.200,29223.000,0.300,2497.000,0.500,1287.000,1.000,405.000,5.000,0
"04/02/08","19:10:25",300191.000,"cc",28321.508,6.00,6,0.100,264669.000,0.200,31730.000,0.300,2338.000,0.500,1099.000,1.000,355.000,5.000,0
"04/02/08","19:10:31",239181.000,"cc",28280.604,6.00,6,0.100,201560.000,0.200,33786.000,0.300,2412.000,0.500,1093.000,1.000,330.000,5.000,0
"04/02/08","19:10:37",390571.000,"cc",28348.678,6.00,6,0.100,340141.000,0.200,46256.000,0.300,2758.000,0.500,1061.000,1.000,355.000,5.000,0
"04/02/08","19:10:43",349897.000,"cc",28310.379,6.00,6,0.100,306591.000,0.200,39193.000,0.300,2581.000,0.500,1151.000,1.000,381.000,5.000,0
"04/02/08","19:10:49",267461.000,"cc",28338.043,6.00,6,0.100,226853.000,0.200,36642.000,0.300,2556.000,0.500,1039.000,1.000,371.000,5.000,0
"04/02/08","19:10:55",311125.000,"cc",28312.861,6.00,6,0.100,275105.000,0.200,32809.000,0.300,2078.000,0.500,842.000,1.000,291.000,5.000,0
"04/02/08","19:11:01",287340.000,"cc",28310.174,6.00,6,0.100,254554.000,0.200,29649.000,0.300,2004.000,0.500,853.000,1.000,280.000,5.000,0
"04/02/08","19:11:07",280509.000,"cc",28282.090,6.00,6,0.100,247948.000,0.200,28742.000,0.300,2341.000,0.500,1114.000,1.000,364.000,5.000,0
"04/02/08","19:11:13",227375.000,"cc",28347.457,6.00,6,0.100,200922.000,0.200,22992.000,0.300,2018.000,0.500,1074.000,1.000,369.000,5.000,0
"04/02/08","19:11:19",301680.000,"cc",28282.100,6.00,6,0.100,264320.000,0.200,33068.000,0.300,2588.000,0.500,1303.000,1.000,401.000,5.000,0
"04/02/08","19:11:25",289249.000,"cc",28304.125,6.00,6,0.100,253357.000,0.200,31618.000,0.300,2604.000,0.500,1257.000,1.000,413.000,5.000,0
"04/02/08","19:11:31",359956.000,"cc",28292.734,6.00,6,0.100,298611.000,0.200,56009.000,0.300,3762.000,0.500,1196.000,1.000,378.000,5.000,0
"04/02/08","19:11:37",345575.000,"cc",28316.381,6.00,6,0.100,285940.000,0.200,54370.000,0.300,3781.000,0.500,1132.000,1.000,352.000,5.000,0
"04/02/08","19:11:43",397789.000,"cc",28398.701,6.00,6,0.100,342532.000,0.200,50211.000,0.300,3471.000,0.500,1180.000,1.000,395.000,5.000,0
"04/02/08","19:11:49",402548.000,"cc",28289.627,6.00,6,0.100,345766.000,0.200,51366.000,0.300,3639.000,0.500,1355.000,1.000,422.000,5.000,0
"04/02/08","19:11:55",254887.000,"cc",28229.766,6.00,6,0.100,184391.000,0.200,64415.000,0.300,4352.000,0.500,1320.000,1.000,409.000,5.000,0
"04/02/08","19:12:01",278697.000,"cc",28304.897,6.00,6,0.100,202029.000,0.200,70332.000,0.300,4725.000,0.500,1229.000,1.000,382.000,5.000,0
"04/02/08","19:12:07",290952.000,"cc",28451.383,6.00,6,0.100,230219.000,0.200,55639.000,0.300,3693.000,0.500,1069.000,1.000,332.000,5.000,0
"04/02/08","19:12:13",333270.000,"cc",28335.898,6.00,6,0.100,257865.000,0.200,69624.000,0.300,4404.000,0.500,1070.000,1.000,306.000,5.000,1.000
"04/02/08","19:12:19",212022.000,"cc",28300.125,6.00,6,0.100,137980.000,0.200,68309.000,0.300,4348.000,0.500,1068.000,1.000,317.000,5.000,0
"04/02/08","19:12:25",290085.000,"cc",28318.705,6.00,6,0.100,229658.000,0.200,55409.000,0.300,3622.000,0.500,1088.000,1.000,308.000,5.000,0
"04/02/08","19:12:31",244189.000,"cc",28334.471,6.00,6,0.100,179526.000,0.200,59663.000,0.300,3706.000,0.500,975.000,1.000,319.000,5.000,0
"04/02/08","19:12:37",331644.000,"cc",28306.625,6.00,6,0.100,290509.000,0.200,36930.000,0.300,2700.000,0.500,1145.000,1.000,360.000,5.000,0
"04/02/08","19:12:43",359492.000,"cc",28310.623,6.00,6,0.100,313446.000,0.200,41540.000,0.300,2975.000,0.500,1144.000,1.000,387.000,5.000,0
"04/02/08","19:12:49",378189.000,"cc",28299.111,6.00,6,0.100,329354.000,0.200,44084.000,0.300,3027.000,0.500,1267.000,1.000,457.000,5.000,0
"04/02/08","19:12:55",265114.000,"cc",28318.428,6.00,6,0.100,235283.000,0.200,25935.000,0.300,2222.000,0.500,1252.000,1.000,422.000,5.000,0
"04/02/08","19:13:01",319499.000,"cc",28337.143,6.00,6,0.100,282465.000,0.200,33626.000,0.300,2177.000,0.500,934.000,1.000,297.000,5.000,0
"04/02/08","19:13:07",330301.000,"cc",28349.273,6.00,6,0.100,278897.000,0.200,47419.000,0.300,2736.000,0.500,948.000,1.000,301.000,5.000,0
"04/02/08","19:13:13",312711.000,"cc",28266.902,6.00,6,0.100,249844.000,0.200,58259.000,0.300,3283.000,0.500,993.000,1.000,332.000,5.000,0
"04/02/08","19:13:19",326672.000,"cc",28256.811,6.00,6,0.100,276495.000,0.200,45922.000,0.300,2826.000,0.500,1089.000,1.000,340.000,5.000,0
"04/02/08","19:13:25",324534.000,"cc",28306.852,6.00,6,0.100,275468.000,0.200,44817.000,0.300,2779.000,0.500,1081.000,1.000,389.000,5.000,0
"04/02/08","19:13:31",278552.000,"cc",28316.703,6.00,6,0.100,237398.000,0.200,37218.000,0.300,2502.000,0.500,1060.000,1.000,374.000,5.000,0
"04/02/08","19:13:37",261094.000,"cc",28366.811,6.00,6,0.100,232250.000,0.200,25109.000,0.300,2124.000,0.500,1213.000,1.000,398.000,5.000,0
"04/02/08","19:13:43",226349.000,"cc",28305.875,6.00,6,0.100,202077.000,0.200,20506.000,0.300,2037.000,0.500,1309.000,1.000,420.000,5.000,0
"04/02/08","19:13:49",180133.000,"cc",28320.508,6.00,6,0.100,161234.000,0.200,15582.000,0.300,1748.000,0.500,1179.000,1.000,390.000,5.000,0
"04/02/08","19:13:55",261816.000,"cc",28338.783,6.00,6,0.100,232749.000,0.200,24905.000,0.300,2386.000,0.500,1348.000,1.000,428.000,5.000,0
"04/02/08","19:14:01",338315.000,"cc",28361.963,6.00,6,0.100,298282.000,0.200,35853.000,0.300,2544.000,0.500,1231.000,1.000,405.000,5.000,0
"04/02/08","19:14:07",322066.000,"cc",28252.475,6.00,6,0.100,285478.000,0.200,32898.000,0.300,2325.000,0.500,1023.000,1.000,342.000,5.000,0
"04/02/08","19:14:13",232856.000,"cc",28263.523,6.00,6,0.100,208080.000,0.200,21401.000,0.300,1935.000,0.500,1090.000,1.000,350.000,5.000,0
"04/02/08","19:14:19",278647.000,"cc",28281.383,6.00,6,0.100,247575.000,0.200,27423.000,0.300,2136.000,0.500,1140.000,1.000,373.000,5.000,0
"04/02/08","19:14:25",238586.000,"cc",28281.266,6.00,6,0.100,212155.000,0.200,22537.000,0.300,2219.000,0.500,1263.000,1.000,412.000,5.000,0
"04/02/08","19:14:31",301055.000,"cc",28372.066,6.00,6,0.100,267408.000,0.200,29817.000,0.300,2332.000,0.500,1141.000,1.000,357.000,5.000,0
"04/02/08","19:14:37",313517.000,"cc",28330.426,6.00,6,0.100,267310.000,0.200,41948.000,0.300,2745.000,0.500,1156.000,1.000,358.000,5.000,0
"04/02/08","19:14:43",322914.000,"cc",28279.225,6.00,6,0.100,285758.000,0.200,33253.000,0.300,2360.000,0.500,1174.000,1.000,369.000,5.000,0
"04/02/08","19:14:49",341153.000,"cc",28312.152,6.00,6,0.100,300666.000,0.200,36280.000,0.300,2629.000,0.500,1181.000,1.000,397.000,5.000,0
"04/02/08","19:14:55",273074.000,"cc",28305.535,6.00,6,0.100,231757.000,0.200,36785.000,0.300,2817.000,0.500,1312.000,1.000,403.000,5.000,0
"04/02/08","19:15:01",370284.000,"cc",28325.416,6.00,6,0.100,323624.000,0.200,42064.000,0.300,3011.000,0.500,1183.000,1.000,402.000,5.000,0
"04/02/08","19:15:07",319745.000,"cc",28338.172,6.00,6,0.100,281592.000,0.200,33729.000,0.300,2684.000,0.500,1278.000,1.000,462.000,5.000,0
"04/02/08","19:15:13",227272.000,"cc",28255.311,6.00,6,0.100,200341.000,0.200,21993.000,0.300,2730.000,0.500,1650.000,1.000,558.000,5.000,0
"04/02/08","19:15:19",244160.000,"cc",28337.363,6.00,6,0.100,206597.000,0.200,32838.000,0.300,2809.000,0.500,1496.000,1.000,420.000,5.000,0
"04/02/08","19:15:25",279481.000,"cc",28418.768,6.00,6,0.100,234927.000,0.200,39900.000,0.300,2986.000,0.500,1256.000,1.000,412.000,5.000,0
"04/02/08","19:15:31",317492.000,"cc",28151.190,6.00,6,0.100,280230.000,0.200,33276.000,0.300,2505.000,0.500,1109.000,1.000,372.000,5.000,0
"04/02/08","19:15:37",213657.000,"cc",28348.924,6.00,6,0.100,191150.000,0.200,19411.000,0.300,1770.000,0.500,1001.000,1.000,325.000,5.000,0
"04/02/08","19:15:43",267500.000,"cc",28287.133,6.00,6,0.100,237908.000,0.200,26048.000,0.300,2082.000,0.500,1078.000,1.000,384.000,5.000,0
"04/02/08","19:15:49",336325.000,"cc",28294.391,6.00,6,0.100,296869.000,0.200,35573.000,0.300,2517.000,0.500,1042.000,1.000,324.000,5.000,0
"04/02/08","19:15:55",331654.000,"cc",28346.356,6.00,6,0.100,280172.000,0.200,47100.000,0.300,2972.000,0.500,1075.000,1.000,335.000,5.000,0
"04/02/08","19:16:01",376131.000,"cc",28324.897,6.00,6,0.100,327543.000,0.200,43774.000,0.300,3139.000,0.500,1293.000,1.000,382.000,5.000,0
"04/02/08","19:16:07",296817.000,"cc",28267.272,6.00,6,0.100,261650.000,0.200,30225.000,0.300,2870.000,0.500,1582.000,1.000,490.000,5.000,0
"04/02/08","19:16:13",312186.000,"cc",28309.168,6.00,6,0.100,275813.000,0.200,31976.000,0.300,2663.000,0.500,1310.000,1.000,424.000,5.000,0
"04/02/08","19:16:19",274118.000,"cc",28359.109,6.00,6,0.100,243379.000,0.200,26771.000,0.300,2288.000,0.500,1252.000,1.000,428.000,5.000,0
"04/02/08","19:16:25",316274.000,"cc",28315.182,6.00,6,0.100,279057.000,0.200,33153.000,0.300,2489.000,0.500,1192.000,1.000,383.000,5.000,0